Location: Austin
(30.3000°N, 97.7500°W)
Time: 04:32:21
(UTC-06:00)

OAO 2 Rocket - Pass Details

Date: 05 February 2026
Orbit: 668 x 734 km, 35.0° (Epoch: 15 February)

Event Time Altitude Azimuth Distance (km) Brightness Sun altitude
Exits shadow 05:23:48 60° 349° (N) 826 3.5 -25.2°
Drops below altitude 10° 05:28:59 10° 69° (ENE) 2,222 6.8 -24.1°
Sets 05:31:28 0° 73° (ENE) 3,148 7.8 -23.6°
